Regional Weather Roundup
Issued by NWS

Home | Current Version | Previous Version | Graphics & Text | Print | Product List | Glossary On
Versions: 1 2 3 4 5 6 7 8 9 10 11 12 13 14 15 16 17 18 19 20 21 22 23 24 25 26 27 28 29 30 31 32 33 34 35 36 37 38 39 40 41 42 43 44 45 46 47 48 49 50
000
ASUS43 KFSD 262002
RWRSD

WEATHER ROUNDUP FOR SOUTH DAKOTA
NATIONAL WEATHER SERVICE SIOUX FALLS SD
300 PM CDT FRI MAY 26 2017

NOTE: "FAIR" INDICATES FEW OR NO CLOUDS BELOW 12,000 FEET WITH NO
SIGNIFICANT WEATHER AND/OR OBSTRUCTIONS TO VISIBILITY.


SDZ001>005-009-010-012>017-262100-
NORTHWEST AND NORTH CENTRAL SOUTH DAKOTA

CITY           SKY/WX    TMP DP  RH WIND       PRES   REMARKS
BUFFALO          N/A     64  36  35 NW15      29.81F
FAITH            N/A     67  36  31 NW18G28   29.85S
MOBRIDGE       MOSUNNY   69  41  36 W8        29.79F
$$

SDZ012>016-024>037-041>051-057-063-072>074-262100-
SOUTHWEST AND SOUTH CENTRAL SOUTH DAKOTA

CITY           SKY/WX    TMP DP  RH WIND       PRES   REMARKS
RAPID CTY ARPT CLOUDY    63  36  36 VRB3      29.89S
PIERRE         SUNNY     71  38  29 NW15G23   29.83F
CUSTER         LGT RAIN  51  31  46 S5        29.94S
ELLSWORTH AFB  CLOUDY    63  35  35 N7        29.89S
PHILIP         SUNNY     71  36  27 W9        29.86F
PINE RIDGE     SUNNY     67  37  33 CALM      29.90F
SPEARFISH      FAIR      59  37  44 NW10G18   29.90F
WINNER         FAIR      71  41  33 NW9G23    29.87F
$$

SDZ004>011-016>023-039-040-262100-
NORTHEAST SOUTH DAKOTA

CITY           SKY/WX    TMP DP  RH WIND       PRES   REMARKS
ABERDEEN       MOSUNNY   68  40  35 W12G24    29.79S
WATERTOWN      SUNNY     68  43  40 W15G25    29.78F
BROOKINGS      SUNNY     68  44  42 W17G25      N/A
SISSETON         N/A     71  44  37 NW20G28   29.75S
$$

SDZ017-020-022-023-036>040-048>070-262100-
SOUTHEAST SOUTH DAKOTA

CITY           SKY/WX    TMP DP  RH WIND       PRES   REMARKS
SIOUX FALLS    MOSUNNY   72  49  44 W16G23    29.82S
HURON          SUNNY     72  41  32 NW17G25   29.80F
CHAMBERLAIN    SUNNY     73  41  32 W8G21     29.85S
MITCHELL       SUNNY     74  39  28 NW18G29   29.83S
YANKTON        SUNNY     71  45  39 W12G21    29.85S
$$

ABBREVIATIONS USED IN REMARKS
   TC - TEMPERATURE IN CELSIUS
  WCI - WIND CHILL INDEX
   HX - HEAT INDEX
  VSB - VISIBILITY





USA.gov is the U.S. government's official web portal to all federal, state and local government web resources and services.